Location: Amsterdam
(30.7274°N, 84.4357°W)
Time: 21:41:09
(UTC+00:00)

Explorer 11/Cluster Stage 4 - Pass Details

Date: 18 February 2026
Orbit: 463 x 1176 km, 28.8° (Epoch: 9 March)

Event Time Altitude Azimuth Distance (km) Brightness Sun altitude
Rises 23:28:03 0° 265° (W) 2,480 11.9 -0.8°
Reaches altitude 10° 23:30:42 10° 244° (WSW) 1,636 10.0 -1.4°
Maximum altitude 23:33:12 17° 201° (SSW) 1,296 8.2 -1.9°
Drops below altitude 10° 23:35:53 10° 158° (SSE) 1,764 8.3 -2.5°
Sets 23:38:53 0° 139° (SE) 2,769 9.1 -3.1°
